GFSFLT2_prec_precacc_129.txt.gz
Total_Precipitation_Accumulation
6.08 3.85 3.32 3.56 2.42 2.36 3.31 3.30 2.77 1.74 1.34 1.10 1.21 0.88 0.76 0.65 0.49 0.41 0.33 0.33 0.49 0.53 0.65 0.66 0.55 0.39 0.31 0.27 0.29 0.36 0.43 0.55
7.11 5.14 3.17 1.75 2.48 2.23 2.23 3.05 3.65 2.35 1.86 1.64 1.27 1.13 0.90 0.55 0.39 0.45 0.62 0.57 0.40 0.29 0.41 0.48 0.45 0.32 0.25 0.30 0.36 0.59 0.43 0.51
6.64 6.40 3.97 2.72 2.47 2.35 1.79 1.70 2.68 3.59 2.42 1.90 1.60 0.86 0.80 0.56 0.53 0.53 0.59 0.61 0.62 0.54 0.48 0.41 0.36 0.31 0.30 0.55 0.45 0.40 0.47 0.42
2.92 3.25 3.01 2.31 2.98 3.04 1.70 1.38 1.16 2.63 2.88 2.05 1.44 0.89 0.81 0.74 0.50 0.53 0.61 0.52 0.65 0.66 0.68 0.52 0.39 0.21 0.20 0.27 0.30 0.67 0.70 0.74
1.24 1.51 1.46 1.47 1.95 1.58 1.46 1.24 1.05 1.34 2.51 1.96 1.23 0.86 0.78 1.00 0.49 0.47 0.85 0.75 0.68 0.58 0.44 0.37 0.34 0.29 0.16 0.11 0.23 0.27 0.39 0.70
1.01 0.80 1.00 1.15 1.39 1.39 0.98 0.94 0.92 0.93 1.72 1.79 1.21 0.81 0.52 0.63 0.31 0.40 0.94 0.89 0.57 0.34 0.21 0.24 0.32 0.38 0.25 0.27 0.15 0.26 0.29 0.53
0.96 0.77 0.80 0.83 0.68 0.79 0.73 0.61 0.85 0.76 0.85 1.46 1.18 0.70 0.37 0.38 0.36 0.37 0.75 0.72 0.77 0.38 0.21 0.26 0.29 0.35 0.31 0.22 0.07 0.22 0.27 0.48
1.00 1.21 0.86 0.88 0.65 0.61 0.59 0.54 0.64 0.83 0.73 1.00 1.34 0.73 0.43 0.43 0.40 0.32 0.49 0.54 0.62 0.51 0.20 0.26 0.29 0.25 0.27 0.16 0.07 0.19 0.27 0.44
1.14 1.62 1.19 1.05 0.62 0.67 0.66 0.70 0.63 0.71 0.78 0.99 1.16 0.80 0.56 0.44 0.45 0.34 0.32 0.38 0.35 0.47 0.41 0.36 0.31 0.29 0.24 0.16 0.10 0.13 0.16 0.30
1.32 1.42 0.99 1.08 0.84 0.95 1.34 0.75 0.51 0.64 0.68 0.76 0.88 0.88 0.65 0.58 0.48 0.36 0.40 0.35 0.22 0.32 0.23 0.30 0.35 0.29 0.22 0.14 0.10 0.06 0.06 0.18
0.89 0.98 0.99 1.33 1.64 1.71 1.23 0.67 0.45 0.67 0.55 0.55 0.73 1.01 0.67 0.59 0.54 0.40 0.44 0.42 0.23 0.19 0.13 0.17 0.27 0.30 0.24 0.20 0.12 0.06 0.06 0.13
0.76 0.84 1.33 1.82 1.57 0.78 0.47 0.51 0.52 0.64 0.53 0.50 0.62 1.13 0.78 0.65 0.70 0.57 0.52 0.42 0.32 0.21 0.14 0.17 0.20 0.21 0.26 0.26 0.17 0.09 0.08 0.16
0.70 0.86 0.73 0.54 0.42 0.41 0.38 0.41 0.33 0.37 0.34 0.51 0.56 0.82 0.93 0.69 0.71 0.66 0.56 0.35 0.21 0.15 0.15 0.18 0.27 0.26 0.35 0.40 0.25 0.16 0.09 0.15
0.41 0.33 0.20 0.20 0.17 0.28 0.34 0.37 0.30 0.25 0.31 0.41 0.90 0.80 0.76 0.70 0.73 0.57 0.45 0.42 0.41 0.28 0.15 0.13 0.24 0.32 0.25 0.29 0.30 0.43 0.16 0.08
0.09 0.15 0.10 0.21 0.23 0.23 0.28 0.41 0.48 0.41 0.38 0.41 0.69 0.62 0.59 0.54 0.69 0.68 0.50 0.49 0.52 0.44 0.25 0.15 0.20 0.30 0.21 0.25 0.29 0.31 0.25 0.08
0.12 0.13 0.19 0.21 0.33 0.13 0.26 0.19 0.21 0.21 0.26 0.28 0.50 0.55 0.47 0.47 0.44 0.57 0.44 0.48 0.50 0.54 0.47 0.38 0.43 0.48 0.25 0.11 0.11 0.20 0.29 0.33
0.09 0.13 0.25 0.27 0.26 0.20 0.34 0.29 0.20 0.18 0.26 0.35 0.46 0.59 0.42 0.46 0.50 0.60 0.50 0.46 0.50 0.53 0.59 0.58 0.63 0.54 0.31 0.24 0.16 0.22 0.21 0.23
0.12 0.13 0.13 0.29 0.34 0.38 0.47 0.60 0.43 0.26 0.21 0.23 0.34 0.52 0.39 0.38 0.60 0.60 0.61 0.58 0.68 0.63 0.68 0.76 0.81 0.83 0.58 0.54 0.39 0.32 0.27 0.36
0.18 0.10 0.16 0.23 0.41 0.54 0.58 1.05 1.20 1.10 0.69 0.39 0.50 0.57 0.41 0.27 0.36 0.51 0.54 0.71 0.77 0.97 0.98 0.90 1.07 1.08 1.14 0.94 0.75 0.63 0.42 0.45
0.37 0.20 0.26 0.30 0.46 0.71 0.72 0.77 1.02 1.72 1.86 1.89 1.51 1.04 0.79 0.47 0.44 0.66 0.72 0.83 0.82 0.95 1.18 1.27 1.33 1.49 1.39 1.27 0.97 0.68 0.65 0.76

GFSFLT2_prec_precacc_132.txt.gz
Total_Precipitation_Accumulation
6.08 3.85 3.32 3.56 2.42 2.36 3.31 3.30 2.77 1.74 1.34 1.10 1.21 0.88 0.76 0.65 0.49 0.41 0.33 0.33 0.49 0.53 0.65 0.66 0.55 0.39 0.31 0.27 0.29 0.36 0.43 0.57
7.11 5.14 3.17 1.75 2.48 2.23 2.23 3.05 3.65 2.35 1.86 1.64 1.27 1.13 0.90 0.55 0.39 0.45 0.62 0.57 0.40 0.29 0.41 0.48 0.45 0.32 0.25 0.30 0.36 0.59 0.43 0.51
6.64 6.40 3.97 2.72 2.47 2.35 1.79 1.70 2.68 3.59 2.42 1.90 1.60 0.86 0.80 0.56 0.53 0.53 0.59 0.61 0.62 0.54 0.48 0.41 0.36 0.31 0.30 0.55 0.45 0.40 0.47 0.42
2.92 3.25 3.02 2.32 2.98 3.04 1.70 1.38 1.16 2.63 2.88 2.05 1.44 0.89 0.81 0.74 0.50 0.53 0.61 0.52 0.65 0.66 0.68 0.52 0.39 0.21 0.20 0.27 0.30 0.67 0.71 0.76
1.24 1.51 1.46 1.49 1.99 1.60 1.48 1.24 1.05 1.34 2.51 1.96 1.23 0.86 0.78 1.00 0.49 0.47 0.85 0.75 0.68 0.58 0.44 0.37 0.34 0.29 0.16 0.11 0.23 0.27 0.39 0.70
1.01 0.80 1.00 1.16 1.41 1.42 1.09 1.09 0.98 0.93 1.72 1.79 1.21 0.81 0.52 0.63 0.31 0.40 0.94 0.89 0.57 0.34 0.21 0.24 0.32 0.38 0.25 0.27 0.15 0.26 0.29 0.53
0.96 0.77 0.80 0.83 0.68 0.80 0.77 0.71 0.93 0.83 0.88 1.46 1.18 0.70 0.37 0.38 0.36 0.37 0.75 0.72 0.77 0.38 0.21 0.26 0.29 0.35 0.33 0.23 0.07 0.22 0.27 0.48
1.00 1.21 0.86 0.88 0.65 0.61 0.60 0.55 0.78 1.02 0.82 1.02 1.34 0.73 0.43 0.43 0.40 0.32 0.49 0.54 0.62 0.51 0.20 0.26 0.29 0.25 0.29 0.20 0.07 0.19 0.28 0.44
1.14 1.62 1.19 1.05 0.62 0.67 0.66 0.70 0.68 0.80 0.92 1.14 1.19 0.80 0.56 0.44 0.45 0.34 0.32 0.38 0.35 0.47 0.41 0.36 0.31 0.29 0.25 0.22 0.11 0.14 0.17 0.30
1.32 1.42 0.99 1.08 0.84 0.95 1.34 0.75 0.51 0.66 0.78 0.91 0.96 0.90 0.65 0.58 0.48 0.36 0.40 0.35 0.22 0.32 0.23 0.30 0.35 0.30 0.23 0.16 0.11 0.06 0.06 0.18
0.89 0.98 0.99 1.33 1.64 1.71 1.23 0.67 0.45 0.69 0.65 0.67 0.86 1.15 0.70 0.59 0.54 0.40 0.44 0.42 0.23 0.19 0.13 0.17 0.27 0.31 0.26 0.24 0.16 0.07 0.06 0.13
0.76 0.84 1.33 1.82 1.57 0.78 0.47 0.51 0.52 0.64 0.56 0.60 0.78 1.38 1.01 0.74 0.70 0.58 0.52 0.43 0.32 0.21 0.14 0.18 0.20 0.21 0.26 0.28 0.20 0.12 0.09 0.17
0.70 0.86 0.73 0.54 0.42 0.41 0.38 0.41 0.33 0.38 0.37 0.55 0.72 1.14 1.29 0.91 0.77 0.67 0.56 0.35 0.22 0.15 0.15 0.18 0.27 0.26 0.36 0.41 0.25 0.18 0.11 0.16
0.41 0.33 0.20 0.20 0.17 0.28 0.34 0.37 0.30 0.25 0.32 0.43 1.00 1.07 1.11 1.01 0.87 0.61 0.46 0.42 0.41 0.29 0.16 0.13 0.24 0.32 0.26 0.30 0.31 0.44 0.17 0.10
0.09 0.15 0.10 0.21 0.23 0.23 0.28 0.41 0.48 0.41 0.38 0.41 0.73 0.79 0.86 0.82 0.94 0.78 0.56 0.51 0.53 0.44 0.25 0.15 0.20 0.30 0.21 0.26 0.30 0.31 0.25 0.08
0.12 0.13 0.19 0.21 0.33 0.13 0.26 0.19 0.21 0.21 0.26 0.28 0.51 0.64 0.70 0.73 0.66 0.74 0.51 0.49 0.50 0.54 0.47 0.38 0.43 0.48 0.26 0.12 0.11 0.20 0.29 0.33
0.09 0.13 0.25 0.27 0.26 0.20 0.34 0.29 0.20 0.18 0.26 0.35 0.46 0.62 0.57 0.76 0.88 0.79 0.58 0.50 0.51 0.53 0.59 0.58 0.63 0.54 0.31 0.24 0.16 0.22 0.21 0.23
0.12 0.13 0.13 0.29 0.35 0.39 0.47 0.61 0.44 0.26 0.21 0.23 0.34 0.53 0.48 0.71 1.08 1.24 0.91 0.63 0.69 0.64 0.68 0.76 0.81 0.83 0.58 0.54 0.39 0.32 0.27 0.36
0.18 0.10 0.16 0.23 0.41 0.54 0.58 1.06 1.21 1.11 0.69 0.39 0.50 0.58 0.46 0.49 0.85 1.29 1.02 0.84 0.79 0.99 0.98 0.90 1.07 1.08 1.14 0.94 0.75 0.63 0.42 0.45
0.38 0.21 0.27 0.31 0.46 0.71 0.73 0.78 1.03 1.73 1.87 1.90 1.51 1.05 0.82 0.77 0.96 1.22 1.40 1.17 0.86 0.96 1.19 1.27 1.33 1.49 1.39 1.27 0.97 0.69 0.65 0.76

GFSFLT2_prec_precacc_138.txt.gz
Total_Precipitation_Accumulation
6.08 3.85 3.32 3.56 2.42 2.36 3.32 3.31 2.79 1.80 1.37 1.10 1.21 0.88 0.76 0.65 0.49 0.42 0.36 0.36 0.50 0.53 0.65 0.66 0.55 0.39 0.31 0.27 0.29 0.36 0.43 0.57
7.11 5.14 3.17 1.75 2.48 2.23 2.24 3.06 3.66 2.38 1.91 1.68 1.31 1.13 0.90 0.55 0.39 0.46 0.62 0.58 0.40 0.29 0.41 0.48 0.45 0.32 0.25 0.30 0.36 0.59 0.43 0.51
6.64 6.40 3.97 2.72 2.47 2.35 1.80 1.70 2.69 3.63 2.47 2.02 1.71 0.91 0.82 0.56 0.53 0.53 0.59 0.62 0.62 0.54 0.48 0.41 0.36 0.31 0.30 0.55 0.45 0.40 0.47 0.42
2.92 3.25 3.02 2.32 2.98 3.04 1.71 1.39 1.17 2.63 2.92 2.11 1.53 0.97 0.85 0.79 0.51 0.53 0.62 0.53 0.65 0.66 0.68 0.52 0.39 0.21 0.20 0.27 0.30 0.67 0.71 0.76
1.24 1.51 1.46 1.49 1.99 1.60 1.49 1.27 1.07 1.35 2.54 2.03 1.31 0.91 0.85 1.05 0.52 0.48 0.87 0.78 0.69 0.58 0.44 0.37 0.34 0.29 0.16 0.11 0.23 0.27 0.39 0.70
1.01 0.80 1.00 1.16 1.41 1.42 1.09 1.10 1.01 0.95 1.79 1.84 1.26 0.89 0.57 0.67 0.34 0.42 0.95 0.90 0.58 0.34 0.21 0.24 0.32 0.38 0.25 0.27 0.15 0.26 0.29 0.53
0.96 0.77 0.80 0.83 0.68 0.80 0.77 0.71 0.93 0.88 0.96 1.56 1.33 0.80 0.42 0.44 0.41 0.41 0.77 0.73 0.77 0.38 0.21 0.26 0.29 0.35 0.33 0.23 0.07 0.22 0.27 0.48
1.00 1.21 0.86 0.88 0.65 0.61 0.60 0.55 0.78 1.04 0.86 1.10 1.56 0.95 0.56 0.59 0.52 0.40 0.54 0.56 0.64 0.51 0.20 0.26 0.29 0.25 0.30 0.20 0.07 0.19 0.28 0.44
1.14 1.62 1.19 1.05 0.62 0.67 0.66 0.70 0.68 0.80 0.93 1.22 1.34 1.04 0.76 0.63 0.65 0.50 0.39 0.41 0.37 0.48 0.42 0.36 0.32 0.29 0.26 0.27 0.17 0.15 0.17 0.30
1.32 1.42 0.99 1.08 0.84 0.95 1.34 0.75 0.51 0.66 0.78 0.92 1.05 1.08 0.87 0.80 0.70 0.55 0.53 0.42 0.25 0.35 0.24 0.31 0.36 0.30 0.24 0.18 0.14 0.11 0.08 0.19
0.89 0.98 0.99 1.33 1.64 1.71 1.23 0.67 0.45 0.69 0.65 0.67 0.87 1.23 0.93 0.81 0.75 0.56 0.63 0.59 0.29 0.22 0.15 0.19 0.28 0.31 0.26 0.28 0.19 0.09 0.07 0.14
0.76 0.84 1.33 1.82 1.57 0.78 0.47 0.51 0.52 0.64 0.56 0.60 0.78 1.40 1.13 0.96 0.96 0.87 0.78 0.59 0.43 0.28 0.21 0.24 0.22 0.23 0.30 0.34 0.25 0.17 0.14 0.18
0.70 0.86 0.73 0.54 0.42 0.41 0.38 0.41 0.33 0.38 0.37 0.55 0.72 1.14 1.32 1.08 1.08 1.04 0.98 0.78 0.51 0.25 0.26 0.27 0.31 0.33 0.47 0.48 0.31 0.25 0.18 0.22
0.41 0.33 0.20 0.20 0.17 0.28 0.34 0.37 0.30 0.25 0.32 0.43 1.00 1.07 1.14 1.10 1.10 0.93 0.86 1.02 1.12 0.72 0.25 0.17 0.29 0.45 0.31 0.34 0.34 0.47 0.19 0.13
0.09 0.15 0.10 0.21 0.23 0.23 0.28 0.41 0.48 0.41 0.38 0.41 0.73 0.79 0.89 0.87 1.08 1.04 0.98 1.16 1.31 1.08 0.46 0.21 0.24 0.39 0.29 0.29 0.30 0.32 0.25 0.08
0.12 0.13 0.19 0.21 0.33 0.14 0.26 0.20 0.21 0.22 0.26 0.28 0.51 0.64 0.70 0.75 0.73 1.08 0.95 1.20 1.44 1.36 1.12 0.64 0.61 0.58 0.37 0.16 0.11 0.20 0.29 0.33
0.09 0.13 0.25 0.27 0.26 0.20 0.35 0.30 0.21 0.19 0.26 0.35 0.46 0.62 0.57 0.77 0.90 0.89 1.15 1.40 1.48 1.54 1.68 1.28 0.88 0.71 0.39 0.29 0.16 0.22 0.21 0.23
0.12 0.13 0.13 0.29 0.35 0.39 0.48 0.62 0.46 0.28 0.22 0.24 0.34 0.53 0.48 0.71 1.08 1.29 1.20 1.25 1.61 1.58 1.73 1.66 1.37 1.12 0.78 0.65 0.42 0.32 0.27 0.36
0.18 0.10 0.16 0.23 0.41 0.54 0.59 1.08 1.24 1.14 0.72 0.42 0.51 0.59 0.46 0.49 0.85 1.32 1.48 1.46 1.58 1.84 1.80 1.95 1.82 1.49 1.35 1.06 0.81 0.64 0.42 0.45
0.39 0.22 0.28 0.31 0.46 0.72 0.73 0.79 1.05 1.76 1.90 1.93 1.54 1.07 0.83 0.77 0.96 1.22 1.46 1.44 1.47 1.62 1.99 2.07 2.18 2.30 1.72 1.53 1.10 0.75 0.66 0.76

GFSFLT2_prec_precacc_141.txt.gz
Total_Precipitation_Accumulation
6.08 3.85 3.32 3.56 2.42 2.36 3.32 3.32 2.81 1.82 1.41 1.20 1.33 0.97 0.81 0.66 0.50 0.45 0.39 0.38 0.51 0.54 0.65 0.66 0.55 0.39 0.31 0.27 0.29 0.36 0.43 0.57
7.11 5.14 3.17 1.75 2.48 2.23 2.24 3.06 3.68 2.41 1.93 1.74 1.41 1.26 1.04 0.62 0.40 0.46 0.64 0.61 0.42 0.31 0.42 0.48 0.45 0.32 0.25 0.30 0.36 0.59 0.43 0.51
6.64 6.40 3.97 2.72 2.47 2.35 1.80 1.70 2.69 3.65 2.49 2.06 1.74 1.00 0.98 0.70 0.62 0.57 0.61 0.66 0.66 0.58 0.51 0.42 0.36 0.31 0.30 0.55 0.45 0.40 0.47 0.42
2.92 3.25 3.02 2.32 2.98 3.04 1.71 1.39 1.17 2.63 2.93 2.17 1.60 1.02 1.00 0.91 0.61 0.66 0.70 0.60 0.70 0.71 0.71 0.53 0.39 0.21 0.20 0.27 0.30 0.67 0.71 0.76
1.24 1.51 1.46 1.49 1.99 1.60 1.49 1.27 1.07 1.35 2.54 2.03 1.32 0.92 0.87 1.12 0.57 0.56 0.93 0.88 0.74 0.64 0.48 0.37 0.34 0.29 0.16 0.11 0.23 0.27 0.39 0.70
1.01 0.80 1.00 1.16 1.41 1.42 1.09 1.10 1.01 0.95 1.79 1.84 1.26 0.90 0.61 0.70 0.37 0.45 0.99 0.91 0.59 0.36 0.22 0.24 0.32 0.38 0.25 0.27 0.15 0.26 0.29 0.53
0.96 0.77 0.80 0.83 0.68 0.80 0.77 0.71 0.93 0.88 0.96 1.56 1.33 0.80 0.42 0.45 0.43 0.47 0.84 0.77 0.78 0.39 0.22 0.27 0.29 0.35 0.33 0.23 0.07 0.22 0.27 0.48
1.00 1.21 0.86 0.88 0.65 0.61 0.60 0.55 0.78 1.04 0.86 1.10 1.56 0.95 0.56 0.60 0.53 0.44 0.61 0.62 0.67 0.53 0.21 0.28 0.30 0.26 0.30 0.20 0.07 0.19 0.28 0.44
1.14 1.62 1.19 1.05 0.62 0.67 0.66 0.70 0.68 0.80 0.93 1.22 1.34 1.04 0.76 0.63 0.66 0.51 0.44 0.47 0.43 0.53 0.45 0.38 0.33 0.30 0.26 0.27 0.17 0.15 0.17 0.30
1.32 1.42 0.99 1.08 0.84 0.95 1.34 0.75 0.51 0.66 0.78 0.92 1.05 1.08 0.87 0.80 0.70 0.55 0.54 0.46 0.30 0.40 0.31 0.35 0.37 0.31 0.24 0.18 0.14 0.11 0.08 0.19
0.89 0.98 0.99 1.33 1.64 1.71 1.23 0.67 0.45 0.69 0.65 0.67 0.87 1.23 0.93 0.81 0.75 0.56 0.64 0.62 0.36 0.33 0.29 0.28 0.31 0.32 0.27 0.28 0.19 0.09 0.07 0.14
0.76 0.84 1.33 1.82 1.57 0.78 0.47 0.51 0.52 0.64 0.56 0.60 0.78 1.40 1.13 0.96 0.96 0.87 0.78 0.61 0.52 0.55 0.45 0.37 0.27 0.24 0.32 0.36 0.26 0.18 0.14 0.18
0.70 0.86 0.73 0.54 0.42 0.41 0.38 0.41 0.33 0.38 0.37 0.55 0.72 1.14 1.32 1.08 1.08 1.04 0.98 0.79 0.58 0.47 0.55 0.66 0.49 0.38 0.53 0.53 0.33 0.26 0.21 0.23
0.41 0.33 0.20 0.20 0.17 0.28 0.34 0.37 0.30 0.25 0.32 0.43 1.00 1.07 1.14 1.10 1.10 0.94 0.86 1.02 1.13 1.05 0.86 0.78 0.55 0.55 0.37 0.36 0.36 0.48 0.19 0.15
0.09 0.15 0.10 0.21 0.23 0.23 0.28 0.41 0.48 0.41 0.38 0.41 0.73 0.79 0.89 0.87 1.09 1.04 0.99 1.16 1.32 1.19 1.06 0.99 1.05 0.97 0.40 0.31 0.32 0.34 0.25 0.08
0.12 0.13 0.19 0.21 0.33 0.14 0.26 0.20 0.22 0.22 0.26 0.28 0.51 0.64 0.70 0.75 0.73 1.08 0.95 1.20 1.45 1.39 1.22 1.02 1.17 1.13 0.70 0.25 0.15 0.20 0.30 0.33
0.09 0.13 0.25 0.27 0.26 0.20 0.35 0.30 0.22 0.19 0.27 0.36 0.47 0.62 0.57 0.77 0.90 0.89 1.15 1.40 1.48 1.54 1.72 1.56 1.33 1.14 0.90 0.49 0.26 0.25 0.22 0.24
0.12 0.13 0.13 0.29 0.35 0.39 0.48 0.63 0.46 0.29 0.22 0.24 0.34 0.54 0.48 0.72 1.09 1.29 1.20 1.25 1.61 1.58 1.73 1.74 1.79 1.67 1.35 1.01 0.53 0.38 0.28 0.36
0.18 0.10 0.16 0.23 0.41 0.55 0.59 1.09 1.25 1.15 0.73 0.42 0.52 0.59 0.47 0.50 0.86 1.33 1.48 1.46 1.58 1.84 1.80 1.96 1.96 1.86 1.75 1.50 1.06 0.72 0.45 0.47
0.39 0.22 0.28 0.31 0.46 0.72 0.74 0.79 1.06 1.77 1.91 1.94 1.55 1.07 0.84 0.78 0.97 1.23 1.46 1.44 1.47 1.63 1.99 2.07 2.19 2.36 2.05 1.91 1.58 1.04 0.80 0.81

GFSFLT2_prec_precacc_144.txt.gz
Total_Precipitation_Accumulation
6.08 3.85 3.32 3.56 2.42 2.36 3.32 3.32 2.81 1.82 1.41 1.20 1.33 0.99 0.86 0.72 0.55 0.48 0.40 0.40 0.53 0.55 0.65 0.66 0.55 0.39 0.31 0.27 0.29 0.36 0.43 0.57
7.11 5.14 3.17 1.75 2.48 2.23 2.24 3.06 3.68 2.41 1.93 1.75 1.41 1.27 1.05 0.65 0.47 0.51 0.68 0.64 0.44 0.32 0.43 0.49 0.45 0.32 0.25 0.30 0.36 0.59 0.43 0.51
6.64 6.40 3.97 2.72 2.47 2.35 1.80 1.70 2.69 3.65 2.49 2.06 1.76 1.03 1.02 0.73 0.65 0.64 0.69 0.70 0.69 0.60 0.51 0.43 0.36 0.31 0.30 0.55 0.45 0.40 0.47 0.42
2.92 3.25 3.02 2.32 2.98 3.04 1.71 1.39 1.17 2.63 2.93 2.17 1.60 1.02 1.03 0.94 0.64 0.67 0.73 0.65 0.75 0.78 0.73 0.56 0.40 0.21 0.20 0.27 0.30 0.67 0.71 0.76
1.24 1.51 1.46 1.49 1.99 1.60 1.49 1.27 1.07 1.35 2.54 2.03 1.32 0.92 0.87 1.14 0.61 0.62 0.98 0.95 0.83 0.70 0.54 0.42 0.35 0.29 0.16 0.11 0.23 0.29 0.39 0.70
1.01 0.80 1.00 1.16 1.41 1.42 1.09 1.10 1.01 0.95 1.79 1.84 1.26 0.90 0.61 0.70 0.37 0.47 1.05 0.99 0.65 0.42 0.27 0.28 0.34 0.38 0.26 0.27 0.15 0.27 0.29 0.53
0.96 0.77 0.80 0.83 0.68 0.80 0.77 0.71 0.93 0.88 0.96 1.56 1.33 0.80 0.42 0.45 0.43 0.47 0.86 0.82 0.86 0.46 0.28 0.33 0.34 0.39 0.35 0.24 0.07 0.23 0.28 0.48
1.00 1.21 0.86 0.88 0.65 0.61 0.60 0.55 0.78 1.04 0.86 1.10 1.56 0.95 0.56 0.60 0.53 0.44 0.62 0.62 0.69 0.59 0.27 0.32 0.37 0.31 0.32 0.22 0.07 0.19 0.29 0.44
1.14 1.62 1.19 1.05 0.62 0.67 0.66 0.70 0.68 0.80 0.93 1.22 1.34 1.04 0.76 0.63 0.66 0.51 0.44 0.47 0.44 0.55 0.52 0.48 0.41 0.36 0.29 0.28 0.18 0.15 0.17 0.30
1.32 1.42 0.99 1.08 0.84 0.95 1.34 0.75 0.51 0.66 0.78 0.92 1.05 1.08 0.87 0.80 0.70 0.55 0.54 0.46 0.31 0.43 0.34 0.43 0.44 0.34 0.25 0.19 0.17 0.11 0.09 0.19
0.89 0.98 0.99 1.33 1.64 1.71 1.23 0.67 0.45 0.69 0.65 0.67 0.87 1.23 0.93 0.81 0.75 0.56 0.64 0.62 0.36 0.35 0.33 0.35 0.39 0.36 0.27 0.28 0.23 0.11 0.08 0.14
0.76 0.84 1.33 1.82 1.57 0.78 0.47 0.51 0.52 0.64 0.56 0.60 0.78 1.40 1.13 0.96 0.96 0.87 0.78 0.61 0.52 0.55 0.48 0.45 0.37 0.28 0.34 0.37 0.27 0.21 0.17 0.19
0.70 0.86 0.73 0.54 0.42 0.41 0.38 0.41 0.33 0.38 0.37 0.55 0.72 1.14 1.32 1.08 1.08 1.04 0.98 0.79 0.58 0.47 0.56 0.70 0.58 0.55 0.73 0.65 0.38 0.31 0.26 0.25
0.41 0.33 0.20 0.20 0.17 0.28 0.34 0.37 0.30 0.25 0.32 0.43 1.00 1.07 1.14 1.10 1.10 0.94 0.87 1.02 1.13 1.05 0.87 0.81 0.62 0.73 0.70 0.70 0.75 0.62 0.24 0.17
0.09 0.15 0.10 0.21 0.23 0.23 0.28 0.41 0.48 0.41 0.38 0.42 0.73 0.79 0.89 0.87 1.09 1.05 0.99 1.17 1.33 1.19 1.07 1.00 1.08 1.11 0.64 0.71 0.74 0.53 0.28 0.10
0.12 0.13 0.19 0.21 0.33 0.14 0.26 0.20 0.22 0.22 0.26 0.28 0.51 0.64 0.71 0.75 0.73 1.09 0.95 1.21 1.45 1.40 1.22 1.03 1.19 1.24 1.16 0.83 0.61 0.49 0.40 0.37
0.09 0.13 0.25 0.27 0.26 0.20 0.35 0.30 0.22 0.19 0.27 0.36 0.47 0.62 0.57 0.77 0.90 0.89 1.16 1.41 1.48 1.54 1.72 1.57 1.35 1.16 0.95 0.79 0.80 0.77 0.54 0.34
0.12 0.13 0.13 0.29 0.35 0.39 0.48 0.63 0.47 0.29 0.23 0.24 0.34 0.54 0.49 0.72 1.09 1.30 1.21 1.26 1.62 1.59 1.73 1.74 1.81 1.69 1.38 1.09 0.72 0.70 0.60 0.55
0.18 0.10 0.16 0.23 0.41 0.55 0.60 1.09 1.25 1.16 0.74 0.43 0.52 0.60 0.47 0.50 0.86 1.33 1.49 1.47 1.59 1.84 1.81 1.97 1.99 1.90 1.79 1.55 1.22 0.88 0.61 0.62
0.39 0.22 0.28 0.31 0.46 0.72 0.74 0.80 1.07 1.77 1.92 1.95 1.56 1.08 0.84 0.78 0.97 1.23 1.47 1.44 1.47 1.63 2.00 2.08 2.20 2.40 2.10 1.95 1.64 1.17 0.95 0.97

GFSFLT2_prec_precacc_147.txt.gz
Total_Precipitation_Accumulation
6.08 3.85 3.32 3.56 2.42 2.36 3.32 3.32 2.81 1.82 1.41 1.20 1.33 1.00 0.86 0.72 0.55 0.50 0.45 0.42 0.54 0.55 0.65 0.66 0.55 0.39 0.31 0.27 0.29 0.36 0.43 0.57
7.11 5.14 3.17 1.75 2.48 2.23 2.24 3.06 3.68 2.41 1.93 1.75 1.41 1.27 1.06 0.67 0.47 0.51 0.69 0.66 0.46 0.33 0.43 0.50 0.46 0.32 0.25 0.30 0.36 0.59 0.43 0.51
6.64 6.40 3.97 2.72 2.47 2.35 1.80 1.70 2.69 3.65 2.49 2.06 1.76 1.04 1.04 0.79 0.79 0.73 0.72 0.70 0.71 0.63 0.53 0.46 0.41 0.32 0.30 0.55 0.45 0.40 0.47 0.42
2.92 3.25 3.02 2.32 2.98 3.04 1.71 1.39 1.17 2.63 2.93 2.17 1.60 1.02 1.03 0.95 0.71 0.76 0.80 0.68 0.75 0.79 0.77 0.61 0.44 0.22 0.20 0.27 0.30 0.67 0.71 0.76
1.24 1.51 1.46 1.49 1.99 1.60 1.49 1.27 1.07 1.35 2.54 2.03 1.32 0.92 0.87 1.14 0.61 0.70 1.07 1.12 0.87 0.71 0.54 0.44 0.35 0.29 0.16 0.11 0.23 0.30 0.39 0.71
1.01 0.80 1.00 1.16 1.41 1.42 1.09 1.10 1.01 0.95 1.79 1.84 1.26 0.90 0.61 0.70 0.37 0.47 1.06 1.05 0.78 0.60 0.35 0.31 0.35 0.38 0.26 0.27 0.15 0.28 0.29 0.53
0.96 0.77 0.80 0.83 0.68 0.80 0.77 0.71 0.93 0.88 0.96 1.56 1.33 0.80 0.42 0.45 0.43 0.47 0.86 0.82 0.89 0.54 0.48 0.52 0.45 0.43 0.39 0.24 0.07 0.23 0.28 0.48
1.00 1.21 0.86 0.88 0.65 0.61 0.60 0.55 0.78 1.04 0.86 1.10 1.56 0.95 0.56 0.60 0.53 0.44 0.62 0.62 0.69 0.60 0.34 0.49 0.62 0.47 0.40 0.25 0.08 0.19 0.29 0.44
1.14 1.62 1.19 1.05 0.62 0.67 0.66 0.70 0.68 0.80 0.93 1.22 1.34 1.04 0.76 0.63 0.66 0.51 0.44 0.47 0.44 0.55 0.53 0.53 0.54 0.54 0.43 0.38 0.23 0.15 0.17 0.30
1.32 1.42 0.99 1.08 0.84 0.95 1.34 0.75 0.51 0.66 0.78 0.92 1.05 1.08 0.87 0.80 0.70 0.55 0.54 0.46 0.31 0.43 0.34 0.44 0.48 0.43 0.36 0.31 0.23 0.12 0.09 0.19
0.89 0.98 0.99 1.33 1.64 1.71 1.23 0.67 0.45 0.69 0.65 0.67 0.87 1.23 0.93 0.81 0.75 0.56 0.64 0.62 0.36 0.35 0.33 0.36 0.40 0.38 0.31 0.34 0.33 0.16 0.08 0.14
0.76 0.84 1.33 1.82 1.57 0.78 0.47 0.51 0.52 0.64 0.56 0.60 0.78 1.40 1.13 0.96 0.96 0.87 0.78 0.61 0.52 0.55 0.48 0.45 0.39 0.30 0.35 0.38 0.29 0.29 0.21 0.20
0.70 0.86 0.73 0.54 0.42 0.41 0.38 0.41 0.33 0.38 0.37 0.55 0.72 1.14 1.32 1.08 1.08 1.04 0.98 0.79 0.58 0.47 0.56 0.70 0.58 0.57 0.77 0.70 0.45 0.42 0.40 0.31
0.41 0.33 0.20 0.20 0.17 0.28 0.34 0.37 0.30 0.25 0.32 0.43 1.00 1.07 1.14 1.10 1.10 0.94 0.87 1.02 1.13 1.05 0.87 0.81 0.62 0.74 0.73 0.75 0.87 0.90 0.41 0.31
0.09 0.15 0.10 0.21 0.23 0.23 0.28 0.41 0.48 0.41 0.38 0.42 0.73 0.79 0.89 0.88 1.09 1.05 1.00 1.17 1.33 1.19 1.07 1.00 1.09 1.12 0.67 0.76 0.78 0.79 0.69 0.46
0.12 0.13 0.19 0.21 0.33 0.14 0.26 0.20 0.22 0.22 0.26 0.28 0.51 0.64 0.71 0.75 0.74 1.09 0.96 1.21 1.46 1.40 1.22 1.03 1.20 1.25 1.19 0.88 0.66 0.54 0.48 0.50
0.09 0.13 0.25 0.27 0.26 0.20 0.35 0.30 0.22 0.19 0.27 0.36 0.47 0.62 0.57 0.77 0.90 0.90 1.16 1.41 1.49 1.54 1.72 1.57 1.35 1.18 0.98 0.82 0.85 0.80 0.57 0.58
0.12 0.13 0.13 0.29 0.35 0.39 0.48 0.63 0.47 0.29 0.23 0.25 0.34 0.54 0.49 0.72 1.09 1.30 1.21 1.26 1.63 1.59 1.74 1.75 1.81 1.69 1.40 1.13 0.76 0.73 0.62 0.60
0.18 0.10 0.16 0.23 0.41 0.55 0.60 1.09 1.25 1.16 0.74 0.44 0.52 0.60 0.47 0.50 0.86 1.34 1.49 1.47 1.59 1.85 1.81 1.98 1.99 1.91 1.81 1.58 1.27 0.91 0.62 0.62
0.39 0.22 0.28 0.31 0.46 0.72 0.74 0.80 1.07 1.78 1.93 1.96 1.56 1.09 0.85 0.78 0.98 1.24 1.48 1.45 1.48 1.63 2.00 2.09 2.22 2.44 2.14 1.99 1.69 1.22 0.97 0.97